Tracking 25710 objects as of 5-Jul-2022
HD Live streaming from Space Station
objects crossing your sky now

STARLINK-3647

Track STARLINK-3647 now!
10-day predictions
STARLINK-3647 is classified as:


NORAD ID: 51994
Int'l Code: 2022-025AQ
Perigee: 545.9 km
Apogee: 547.9 km
Inclination: 53.2 °
Period: 95.4 minutes
Semi major axis: 6917 km
RCS: Unknown
Launch date: March 9, 2022
Source: United States (US)
Launch site: AIR FORCE EASTERN TEST RANGE (AFETR)
aabbcc
Your satellite tracking list
Your tracking list is empty




NASA's NSSDC Master Catalog

Two Line Element Set (TLE):
1 51994U 22025AQ  22186.58334491 -.00005698  00000-0 -34024-3 0  9991
2 51994  53.2169 288.5640 0001423  57.3585 313.7792 15.08834621 19686
Source of the keplerian elements: AFSPC